West Palm Beach, FL

2:33 PM EST on November 20, 2019 (GMT -0500)
Palm Beach International

Weather History for KPBI - July, 2019

Change the Weather History Date:

Monday, July 15, 2019

  Actual Average Record
Temperature  
Mean Temperature 87 °F 83 °F  
Max Temperature 91 °F 90 °F 97 °F (1981)
Min Temperature 82 °F 76 °F 67 °F (1904)
Degree Days  
Heating Degree Days 0 0  
Month to date heating degree days 0 0  
Since 1 June heating degree days 0 0  
Since 1 July heating degree days 0 0  
Cooling Degree Days 22 18  
Month to date cooling degree days 289 259  
Year to date cooling degree days 2261 1858  
Since 1 June cooling degree days 860 749  
Growing Degree Days 36 (Base 50)    
Moisture  
Dew Point 74 °F    
Average Humidity 66    
Maximum Humidity 79    
Minimum Humidity 52    
Precipitation  
Precipitation 0.00 in 0.17 in 2.10 in (1954)
Month to date precipitation 0.88 2.99  
Year to date precipitation 29.08 30.00  
Snow  
Snow 0.00 in - - ()
Month to date snowfall 0.0  
Since 1 June snowfall 0.0  
Since 1 July snowfall 0.0  
Snow Depth 0.00 in    
Sea Level Pressure  
Sea Level Pressure 30.09 in    
Wind  
Wind Speed 10 mph (East)    
Max Wind Speed 15 mph    
Max Gust Speed 20 mph    
Visibility 10 miles    
Events      
T = Trace of Precipitation, MM = Missing Value Source: NWS Daily Summary

Daily Weather History Graph

Daily Weather History Graph

Search for Another Location

Airport or City:

Astronomy

Jul. 15, 2019 Rise Set
Actual Time 6:36 AM EDT 8:16 PM EDT
Civil Twilight 6:10 AM EDT 8:41 PM EDT
Nautical Twilight 5:39 AM EDT 9:12 PM EDT
Astronomical Twilight 5:07 AM EDT 9:45 PM EDT
Moon 7:29 PM EDT (7/15) 5:24 AM EDT (7/15)
Length of Visible Light 14h 31m
Length of Day
13h 39m
Waxing Gibbous, 98% of the Moon is Illuminated
Jul 15
Waxing Gibbous
Jul 16
Full
Jul 24
Last Quarter
Jul 31
New
Aug 7
First Quarter

Hourly Weather History & Observations

Time (EDT) Temp. Heat Index Dew Point Humidity Pressure Visibility Wind Dir Wind Speed Gust Speed Precip Events Conditions
12:53 AM 84.0 °F 91.2 °F 73.9 °F 72% 30.13 in 10.0 mi East 10.4 mph - N/A   Partly Cloudy
1:53 AM 84.0 °F 91.2 °F 73.9 °F 72% 30.10 in 10.0 mi East 8.1 mph - N/A   Partly Cloudy
2:53 AM 82.9 °F 90.2 °F 75.0 °F 77% 30.08 in 10.0 mi East 9.2 mph - N/A   Scattered Clouds
3:53 AM 82.9 °F 90.2 °F 75.0 °F 77% 30.07 in 10.0 mi East 10.4 mph - N/A   Scattered Clouds
4:53 AM 82.9 °F 88.8 °F 73.0 °F 72% 30.06 in 10.0 mi East 9.2 mph - N/A   Scattered Clouds
5:53 AM 82.0 °F 87.4 °F 73.0 °F 74% 30.07 in 10.0 mi ESE 8.1 mph - N/A   Partly Cloudy
6:53 AM 82.0 °F 87.9 °F 73.9 °F 76% 30.07 in 10.0 mi East 8.1 mph - N/A   Partly Cloudy
7:53 AM 84.0 °F 90.2 °F 73.0 °F 69% 30.09 in 10.0 mi East 10.4 mph - N/A   Scattered Clouds
8:53 AM 86.0 °F 93.0 °F 73.0 °F 65% 30.10 in 10.0 mi East 9.2 mph - N/A   Scattered Clouds
9:53 AM 87.1 °F 94.5 °F 73.0 °F 63% 30.11 in 10.0 mi ESE 12.7 mph - N/A   Scattered Clouds
10:53 AM 88.0 °F 97.5 °F 75.0 °F 65% 30.12 in 10.0 mi East 9.2 mph 18.4 mph N/A   Scattered Clouds
11:53 AM 89.1 °F 98.0 °F 73.9 °F 61% 30.12 in 10.0 mi East 12.7 mph - N/A   Scattered Clouds
12:53 PM 90.0 °F 95.4 °F 70.0 °F 52% 30.12 in 10.0 mi East 12.7 mph - N/A   Scattered Clouds
1:53 PM 90.0 °F 100.2 °F 75.0 °F 61% 30.10 in 10.0 mi ESE 10.4 mph - N/A   Scattered Clouds
2:53 PM 90.0 °F 99.0 °F 73.9 °F 59% 30.09 in 10.0 mi East 11.5 mph - N/A   Scattered Clouds
3:53 PM 89.1 °F 99.1 °F 75.0 °F 63% 30.08 in 10.0 mi ENE 10.4 mph - N/A   Scattered Clouds
4:53 PM 88.0 °F 96.5 °F 73.9 °F 63% 30.08 in 10.0 mi East 12.7 mph - N/A   Scattered Clouds
5:53 PM 88.0 °F 96.5 °F 73.9 °F 63% 30.06 in 10.0 mi East 9.2 mph 17.3 mph N/A   Scattered Clouds
6:53 PM 87.1 °F 95.4 °F 73.9 °F 65% 30.07 in 10.0 mi ENE 10.4 mph - N/A   Scattered Clouds
7:53 PM 86.0 °F 93.8 °F 73.9 °F 67% 30.08 in 10.0 mi East 9.2 mph - N/A   Scattered Clouds
8:53 PM 84.9 °F 92.1 °F 73.9 °F 69% 30.09 in 10.0 mi East 9.2 mph - N/A   Scattered Clouds
9:53 PM 84.9 °F 92.1 °F 73.9 °F 69% 30.10 in 10.0 mi ENE 10.4 mph - N/A   Partly Cloudy
10:53 PM 84.9 °F 93.3 °F 75.0 °F 72% 30.12 in 10.0 mi ENE 8.1 mph - N/A   Partly Cloudy
11:53 PM 84.0 °F 92.6 °F 75.9 °F 76% 30.12 in 10.0 mi East 8.1 mph - N/A   Partly Cloudy